www.pogodaiklimat.ru

ПОГОДА в Beira

  • Прогноз погоды в Beira
  • Монитор погоды в Beira
  • Климат города

АРХИВ ПОГОДЫ в Beira

Время (UTC), дата Ветер
(напр.,м/с)
 
Видим.   Явления Облачность Т
(С)
Тd
(С)
f
(%)
Тe
(С)
Тes
(С)
Комфортность P
(гПа)
Po
(гПа)
Тmin
(С)
Tmax
(С)
R
(мм)
S
(см)
00 7.01 штиль 0 20 км 3/3 300 м
[Cb cap]
+28.4 +25.1 82 +41 +41 опасность
перегрева
1009.4 1009.0
03 7.01 нст 1 20 км 3/3 300 м
[Cu Sc]
+27.2 +25.7 92 +40 +40 очень
душно
1008.9 1009.0
06 7.01 С 2 25 км 4/4 600 м
[Cu med, cong]
+29.4 +26.3 83 +45 +50 опасность
перегрева
1010.7 1011.0 +27.0
09 7.01 Ю 5 25 км 6/6 300 м
[Cu med, cong]
+31.8 +27.0 76 +50 +54 опасность
перегрева
1009.3 1009.0
12 7.01 ЮВ 8 25 км 4/4 300 м
[Cu med, cong]
+32.2 +26.7 73 +50 +51 опасность
перегрева
1007.1 1007.0
15 7.01 ЮВ 8 25 км 4/4 300 м
[Cu med, cong]
+31.1 +27.0 79 +49 +49 опасность
перегрева
1006.6 1007.0
03 8.01 С 3 20 км {дождь} 9/5 300 м
[Cu Sc Ci fib]
+26.8 +25.7 94 +40 +40 очень
душно
1007.9 1008.0
06 8.01 СВ 7 20 км {дождь} 8/5 300 м
[Cb cap Ci fib]
+28.6 +25.1 81 +41 +42 опасность
перегрева
1008.9 1009.0 +26.4 5
18 8.01 ЮВ 6 25 км зарница 8/6 300 м
[Cb cap Ac trans Ci ing]
+29.0 +26.3 85 +44 +44 опасность
перегрева
1008.5 1009.0 +32.0
00 9.01 ЮВ 6 20 км 5/5 300 м
[Cu med, cong]
+26.2 +23.2 84 +35 +35 очень
душно
1007.1 1007.0
03 9.01 ЮВ 5 9000 м слабая морось 9/9 300 м
[Cu Sc]
+25.0 +23.8 93 +34 +34 очень
душно
1008.1 1008.0
06 9.01 З 2 2000 м гроза, ливневой дождь {морось} 10/9 300 м
[Cu med, cong As op]
+24.4 +23.9 97 +33 +34 очень
душно
1010.1 1010.0 +24.4 65
09 9.01 Ю 2 9000 м слабый дождь {гроза} 10/6 300 м
[Cu Sc Ac As]
+26.0 +24.7 93 +37 +40 очень
душно
1009.4 1009.0
12 9.01 Ю 2 9000 м слабый дождь {гроза} 10/6 300 м
[Cu Sc Ac As]
+26.0 +24.7 93 +37 +39 очень
душно
1009.4 1009.0
06 10.01 Ю 4 20 км {морось} 9/8 300 м
[Cu Sc Ac As]
+27.0 +25.6 92 +40 +41 очень
душно
1008.9 1009.0 +24.5 32
09 10.01 Ю 4 25 км 6/4 300 м
[Cb cap Ac trans Ci ing]
+30.0 +26.0 79 +45 +53 опасность
перегрева
1008.8 1009.0
12 10.01 Ю 5 25 км 8/4 300 м
[Cb cap Ci fib]
+29.6 +24.7 75 +42 +47 опасность
перегрева
1007.3 1007.0
15 10.01 ЮВ 7 25 км 6/5 300 м
[Cu med, cong Ac trans Ci fib]
+29.4 +26.1 82 +44 +44 опасность
перегрева
1006.7 1007.0
18 10.01 В 6 20 км 5/5 300 м
[Cu med, cong]
+28.0 +24.0 79 +39 +39 очень
душно
1008.5 1009.0 +30.5
00 11.01 Ю 4 15 км 8/8 300 м
[Cu Sc]
+25.0 +23.6 92 +34 +34 очень
душно
1007.4 1007.0
03 11.01 С 3 10 км в посл. час ливневой дождь 10/10 300 м
[Cb cap]
+24.4 +23.7 96 +33 +33 очень
душно
1009.0 1009.0
06 11.01 ЮЗ 3 15 км {дождь} 9/9 300 м
[Cu Sc]
+26.4 +25.7 96 +39 +40 очень
душно
1009.9 1010.0 +24.2 5
09 11.01 В 2 9000 м слабая морось 10/6 300 м
[Cu Sc Ac As]
+25.4 +24.7 96 +36 +38 очень
душно
1009.3 1009.0
12 11.01 Ю 4 25 км 6/5 300 м
[Cu Sc Ac trans]
+28.8 +25.1 80 +42 +47 опасность
перегрева
1007.7 1008.0 13
15 11.01 В 4 25 км 4/4 300 м
[Cu Sc]
+28.8 +25.1 80 +42 +42 опасность
перегрева
1006.7 1007.0
18 11.01 В 3 20 км 4/4 300 м
[Cu Sc]
+27.6 +24.2 82 +39 +39 очень
душно
1009.0 1009.0 +29.2 13
21 11.01 В 2 15 км в посл. час дождь {ливн. осадки} 8/8 300 м
[Cu med, cong]
+27.0 +25.6 92 +40 +40 очень
душно
1009.7 1010.0
00 12.01 нст 1 20 км {ливн. осадки, дождь} 8/8 300 м
[Cu Sc Ci fib]
+26.6 +24.6 89 +38 +38 очень
душно
1008.6 1009.0 1
03 12.01 В 2 20 км {ливн. осадки} 3/3 300 м
[Cb cap Ac trans Ci ing]
+26.0 +24.8 93 +37 +37 очень
душно
1008.8 1009.0
06 12.01 В 2 20 км {ливн. осадки} 8/4 300 м
[Cu Sc Ac trans]
+27.6 +25.5 88 +40 +44 очень
душно
1010.1 1010.0 +24.5 7
09 12.01 В 2 30 км 6/6 300 м
[Cu med, cong]
+29.6 +26.2 82 +45 +54 опасность
перегрева
1009.7 1010.0
15 12.01 В 6 25 км 5/4 300 м
[Cu Sc Ac trans]
+29.4 +26.1 82 +44 +45 опасность
перегрева
1007.3 1007.0
18 12.01 В 5 25 км 5/4 300 м
[Cb calv Ac trans]
+28.6 +25.1 81 +41 +41 опасность
перегрева
1008.6 1009.0 +31.0
03 13.01 СВ 3 20 км 9/9 300 м
[Cu Sc]
+25.6 +24.7 95 +36 +36 очень
душно
1008.5 1009.0
06 13.01 СВ 2 20 км 10/6 300 м
[Cu Sc Ac As]
+26.8 +24.4 87 +38 +39 очень
душно
1008.7 1009.0 +24.8
09 13.01 нст 2 30 км 9/6 300 м
[Cu Sc Ac As]
+28.2 +24.0 78 +39 +43 очень
душно
1007.7 1008.0
12 13.01 ЮВ 4 25 км 9/8 300 м
[Cu Sc Ac As]
+29.2 +25.0 78 +42 +43 опасность
перегрева
1006.1 1006.0
15 13.01 Ю 3 25 км 9/6 300 м
[Cu Sc Ac As]
+27.8 +24.0 80 +39 +39 очень
душно
1004.4 1004.0
18 13.01 ЮВ 3 25 км 9/8 300 м
[Cb cap Ac As]
+27.0 +24.5 86 +38 +38 очень
душно
1005.1 1005.0 +29.4
21 13.01 СВ 3 20 км 9/8 300 м
[Cb cap Ac As]
+26.8 +24.5 87 +38 +38 очень
душно
1005.7 1006.0
03 14.01 СВ 3 20 км 8/4 300 м
[Cu Sc Ac As]
+24.6 +23.8 95 +33 +33 очень
душно
1004.4 1004.0
06 14.01 СВ 4 25 км 9/5 300 м
[Cu Sc Ac As]
+26.2 +24.5 90 +37 +38 очень
душно
1005.7 1006.0 +24.6
09 14.01 В 4 25 км 5/5 600 м
[Cu Sc Ac trans Ci fib]
+32.0 +24.3 64 +44 +52 опасность
перегрева
1004.5 1005.0
12 14.01 В 5 25 км 9/9 300 м
[Cu Sc]
+32.0 +25.4 68
03 15.01 СВ 3 15 км 6/4 300 м
[Cu Sc Ac As]
+25.6 +23.6 89 +35 +35 очень
душно
1004.8 1005.0
06 15.01 СВ 4 25 км 9/4 300 м
[Cu Sc Ac As]
+26.4 +23.3 83 +36 +37 очень
душно
1005.5 1006.0 +25.4
09 15.01 СВ 5 25 км 8/4 300 м
[Cu med, cong Ac trans Cs]
+30.0 +24.7 73 +43 +48 опасность
перегрева
1005.2 1005.0
12 15.01 ЮВ 7 25 км 9/5 300 м
[Cu med, cong Ci fib]
+32.8 +26.4 69 +49 +51 опасность
перегрева
1003.6 1004.0
18 15.01 В 6 25 км 8/5 300 м
[Cu Sc Ac As]
+29.6 +26.3 82 +45 +45 опасность
перегрева
1005.4 1005.0 +33.4
21 15.01 СВ 6 20 км 6/6 300 м
[Cu med, cong]
+28.2 +26.4 90 +43 +43 опасность
перегрева
1006.1 1006.0
00 16.01 Ю 4 15 км 6/6 300 м
[Cu Sc]
+26.4 +24.6 90 +37 +37 очень
душно
1005.1 1005.0
03 16.01 СВ 2 15 км 9/5 300 м
[Cu Sc Ac As]
+27.2 +25.6 91 +40 +40 очень
душно
1006.1 1006.0
06 16.01 СВ 4 20 км 10/6 300 м
[Cu Sc Ac As]
+27.7 +25.3 87 +40 +41 очень
душно
1006.5 1007.0 +26.4
09 16.01 С 7 30 км 6/6 300 м
[Cu med, cong Ac As]
+33.0 +24.6 61 +46 +48 опасность
перегрева
1004.9 1005.0
12 16.01 С 6 30 км 6/1 300 м
[Cu med, cong Ac As Ci sp]
+33.8 +23.7 56 +45 +49 опасность
перегрева
1003.6 1004.0
15 16.01 С 5 30 км 8/3 600 м
[Cu med, cong Ac As Ci sp]
+32.0 +24.3 64 +44 +45 опасность
перегрева
1002.6 1003.0

 

Местоположение метеостанции Beira (Мозамбик): широта -19.80 долгота 34.90 высота над уровнем моря 16 м.

В архиве по умолчанию представлена погода в Beira за последнюю неделю. Архивные данные за месяц целиком и за предыдущие месяцы, начиная с января 2011 года, Вы можете получить, выбрав интересующий диапазон дат из раскрывающегося списка и нажав кнопку "Ввод!".

Внимание! Время в таблицах - всемирное. Для получения местного времени необходимо прибавить поправку, которая в Beira равна 2 ч.

Ветер - указаны скорость ветра в м/с - средняя за 10 мин, порывы в срок и между сроками (в фигурных скобках) и направление, откуда дует ветер: С - северный, СВ - северо-восточный, В - восточный, ЮВ - юго-восточный, Ю - южный, ЮЗ - юго-западный, З - западный, СЗ - северо-западный.
Видимость - горизонтальная дальность видимости в метрах или километрах. При видимости от 1 до 10 км при отсутствии осадков обычно наблюдается дымка, при ухудшении видимости до 1 км и менее - туман. В сухую погоду видимость может ухудшаться дымом, пылью или мглою.
Явления - указаны атмосферные явления, наблюдавшиеся в срок или в последний час перед сроком; фигурными скобками обозначены явления, наблюдавшиеся между сроками (за 1-3 часа до срока); квадратными скобками обозначены град или гололедные отложения с указанием их диаметра в мм.
Облачность - указаны через наклонную черту общая и нижняя облачность в баллах и высота нижней границы облаков в метрах; квадратными скобками обозначены формы облаков: Ci - перистые, Cs - перисто-слоистые, Cc - перисто-кучевые, Ac - высококучевые, As - высокослоистые, Sc - слоисто-кучевые, Ns - слоисто-дождевые, Cu - кучевые, Cb - кучево-дождевые. Подробнее классификацию облаков см. в Атласе облаков (PDF).
T - Температура воздуха - температура, измеренная на высоте 2 м над землей.
Td - Температура точки росы - температура, при понижении до которой содержащийся в воздухе водяной пар достигнет насыщения.
f - Относительная влажность воздуха - влажноcть воздуха, измеренная на высоте 2 м над землей.
Te - Эффективная температура - температура, которую ощущает одетый по сезону человек в тени. Характеристика душности погоды. При расчете учитывается влияние влажности воздуха и скорости ветра на теплоощущения человека.
Tes - Эффективная температура на солнце - температура, которую ощущает человек, с поправкой на солнечный нагрев. Характеристика знойности погоды. Зависит от высоты солнца над горизонтом, облачности и скорости ветра. Ночью, в пасмурную погоду, а также при ветре 12 м/с и более поправка равна нулю.
P - Атмосферное давление - приведенное к уровню моря атмосферное давление.
Po - Атмосферное давление - измеренное на уровне метеостанции атмосферное давление.
Tmin - Минимальная температура - минимум температуры воздуха на высоте 2 м над землей.
Tmax - Максимальная температура - максимум температуры воздуха на высоте 2 м над землей.
R - Количество осадков - Количество выпавших осадков, мм. При наведении курсора мыши на число - период времени, за который выпало указанное количество осадков.
S - Снежный покров - Высота снежного покрова, см. При наведении курсора мыши на число - состояние снежного покрова и степень покрытия местности в баллах.